Champaign, IL

1:19 AM CDT on June 25, 2017 (GMT -0500)
Univ Of Illinois-Willard

Weather History for KCMI - July, 2012

Change the Weather History Date:

Sunday, July 29, 2012

  Actual Average Record
Temperature  
Mean Temperature 73 °F 73 °F  
Max Temperature 87 °F 83 °F 91 °F (1999)
Min Temperature 58 °F 63 °F 51 °F (2013)
Degree Days  
Heating Degree Days 0 0  
Month to date heating degree days 0 0  
Since 1 June heating degree days 14 17  
Since 1 July heating degree days 0 0  
Cooling Degree Days 8 8  
Month to date cooling degree days 458 267  
Year to date cooling degree days 912 582  
Since 1 June cooling degree days 686 490  
Growing Degree Days 22 (Base 50)    
Moisture  
Dew Point 59 °F    
Average Humidity 64    
Maximum Humidity 87    
Minimum Humidity 40    
Precipitation  
Precipitation 0.00 in 0.11 in 1.12 in (2000)
Month to date precipitation T 4.11  
Year to date precipitation 12.26 23.44  
Sea Level Pressure  
Sea Level Pressure 30.04 in    
Wind  
Wind Speed 5 mph (ESE)    
Max Wind Speed 10 mph    
Max Gust Speed 15 mph    
Visibility 10 miles    
Events      
T = Trace of Precipitation, MM = Missing Value Source: NWS Daily Summary

Daily Weather History Graph

Daily Weather History Graph

Search for Another Location

Airport or City:

Trip Planner

Search our weather history database for the weather conditions in past years. The results will help you decide how hot, cold, wet, or windy it might be!

Date:

Astronomy

Jul. 29, 2012 Rise Set
Actual Time 5:49 AM CDT 8:09 PM CDT
Civil Twilight 5:18 AM CDT 8:39 PM CDT
Nautical Twilight 4:40 AM CDT 9:17 PM CDT
Astronomical Twilight 3:59 AM CDT 9:59 PM CDT
Moon 5:15 PM CDT (7/29) 2:02 AM CDT (7/29)
Length of Visible Light 15h 21m
Length of Day
14h 20m
Waxing Gibbous, 85% of the Moon is Illuminated
Jul 29
Waxing Gibbous
Aug 1
Full
Aug 9
Last Quarter
Aug 17
New
Aug 24
First Quarter

Hourly Weather History & Observations

Time (CDT) Temp. Heat Index Dew Point Humidity Pressure Visibility Wind Dir Wind Speed Gust Speed Precip Events Conditions
12:53 AM 64.0 °F - 57.9 °F 80% 30.08 in 10.0 mi East 5.8 mph - N/A   Clear
1:53 AM 62.1 °F - 57.0 °F 84% 30.09 in 10.0 mi East 5.8 mph - N/A   Clear
2:53 AM 60.1 °F - 55.9 °F 86% 30.08 in 10.0 mi East 5.8 mph - N/A   Clear
3:53 AM 60.1 °F - 55.9 °F 86% 30.07 in 10.0 mi East 6.9 mph - N/A   Clear
4:53 AM 59.0 °F - 55.0 °F 87% 30.09 in 10.0 mi East 5.8 mph - N/A   Clear
5:53 AM 59.0 °F - 55.0 °F 87% 30.11 in 10.0 mi Calm Calm - N/A   Clear
6:53 AM 64.9 °F - 59.0 °F 81% 30.12 in 10.0 mi Calm Calm - N/A   Clear
7:53 AM 70.0 °F - 60.1 °F 71% 30.12 in 10.0 mi Calm Calm - N/A   Clear
8:53 AM 75.0 °F - 62.1 °F 64% 30.12 in 10.0 mi SE 4.6 mph - N/A   Clear
9:53 AM 78.1 °F - 61.0 °F 56% 30.10 in 10.0 mi SE 5.8 mph - N/A   Clear
10:53 AM 80.6 °F 81.5 °F 60.8 °F 51% 30.10 in 10.0 mi SE 4.6 mph - N/A   Clear
11:53 AM 81.0 °F 81.1 °F 57.9 °F 45% 30.07 in 10.0 mi SSE 5.8 mph - N/A   Clear
12:53 PM 81.0 °F 81.6 °F 60.1 °F 49% 30.06 in 10.0 mi South 5.8 mph - N/A   Clear
1:53 PM 82.9 °F 82.6 °F 57.9 °F 42% 30.03 in 10.0 mi SSE 8.1 mph - N/A   Clear
2:53 PM 82.0 °F 82.4 °F 60.1 °F 47% 30.03 in 10.0 mi South 6.9 mph - N/A   Clear
3:53 PM 86.0 °F 85.4 °F 59.0 °F 40% 30.01 in 10.0 mi SE 8.1 mph - N/A   Clear
4:53 PM 86.0 °F 85.4 °F 59.0 °F 40% 29.99 in 10.0 mi SSE 6.9 mph - N/A   Clear
5:53 PM 86.0 °F 85.4 °F 59.0 °F 40% 29.98 in 10.0 mi ESE 8.1 mph - N/A   Clear
6:16 PM 84.2 °F 83.8 °F 59.0 °F 42% 29.99 in 9.0 mi ESE 6.9 mph - N/A   Partly Cloudy
6:53 PM 84.0 °F 84.0 °F 60.1 °F 44% 29.97 in 10.0 mi ESE 5.8 mph - N/A   Clear
7:53 PM 75.9 °F - 62.1 °F 62% 29.96 in 10.0 mi ESE 4.6 mph - N/A   Partly Cloudy
8:53 PM 73.0 °F - 62.1 °F 68% 29.97 in 10.0 mi East 6.9 mph - N/A   Clear
9:53 PM 71.1 °F - 61.0 °F 70% 29.99 in 10.0 mi ESE 5.8 mph - N/A   Scattered Clouds
10:53 PM 70.0 °F - 61.0 °F 73% 29.98 in 10.0 mi ESE 5.8 mph - N/A   Mostly Cloudy
11:53 PM 70.0 °F - 61.0 °F 73% 29.98 in 10.0 mi ESE 4.6 mph - N/A   Overcast